Location: Lentill�res
(44.6129°N, 4.3136°E)
Time: 12:07:20
(UTC+00:00)

Daily predictions for brighter satellites

Satellite Brightness Start Highest point End
(mag) Time Altitude Azimuth Time Altitude Azimuth Time Altitude Azimuth
Nadezhda 1 Rocket 4.4 16:27:28 10° SSW 16:33:50 76° W 16:40:17 10° N
Meteor 2-12 Rocket 4.5 16:29:00 10° N 16:35:10 70° E 16:41:14 10° SSE
Cosmos 2218 Rocket 4.4 16:31:35 10° N 16:37:23 41° ENE 16:43:08 10° SE
Cosmos 1867 3.9 16:32:31 10° SW 16:37:54 67° NW 16:43:22 10° NNE
Cosmos 2366 rocket 4.4 16:32:33 10° N 16:38:20 40° ENE 16:44:03 10° SE
Meteor 1-25 Rocket 4.5 16:33:44 10° N 16:39:11 48° ENE 16:44:41 10° SSE
ERS-2 3.9 16:37:18 10° ENE 16:39:23 14° E 16:41:26 10° SE
Envisat 3.0 16:36:43 10° SSE 16:41:48 83° ENE 16:46:54 10° NNW
Lacrosse 5 rocket 1.6 16:42:53 10° WSW 16:46:30 51° NW 16:50:01 10° NE
Cosmos 773 Rocket 4.2 16:42:37 10° S 16:47:45 56° ESE 16:52:56 10° NNE
SL-23 DEB 4.4 16:44:38 10° SW 16:47:55 48° SE 16:52:39 11° ENE
YAOGAN 6 2.5 16:47:17 10° SSE 16:50:54 84° E 16:54:30 10° N
Cosmos 1606 3.2 16:49:29 10° SSW 16:53:20 65° W 16:57:13 10° N
Cosmos 2297 3.8 16:49:01 10° NNW 16:54:45 86° WSW 17:00:28 10° SSE
OE (NEXTSAT) 4.4 16:52:02 10° W 16:55:30 67° N 16:58:30 13° E
AQUARIUS 4.2 16:51:40 10° SSE 16:56:04 58° ENE 17:00:28 10° N
FengYun 1-2 T 4.4 16:50:49 10° SE 16:56:06 48° ENE 17:01:22 10° N
SL-16 R/B 2.3 16:52:03 10° SSW 16:57:43 82° WNW 17:03:26 10° NNE
CZ-4B R/B 2.4 16:56:26 10° NE 16:59:00 25° E 17:01:40 10° SSE
Landsat 5 3.9 16:55:43 10° N 17:00:11 75° WNW 17:04:41 10° SSW
BREEZE-M DEB (TANK) 1.5 16:59:23 10° WSW 17:02:10 85° NNW 17:03:26 19° ENE
USA 215 4.3 16:59:20 12° ENE 17:04:24 28° SE 17:09:51 10° S
SMAP 3.0 17:00:24 10° SSE 17:05:03 82° ENE 17:09:44 10° NNW
Cosmos 1500 4.5 17:03:31 10° NNE 17:06:24 20° ENE 17:09:17 10° ESE
Sich 1 4.2 17:04:19 10° NNW 17:08:31 47° W 17:12:39 10° SSW
YAOGAN 1 4.1 17:09:19 15° ENE 17:09:19 15° ENE 17:11:38 10° NNE
Cosmos 1656 Rocket 4.4 17:05:42 10° N 17:10:38 30° NE 17:15:30 10° ESE
CZ-4C R/B 4.2 17:07:41 10° N 17:11:10 44° WNW 17:14:36 10° SW
Cosmos 1151 Rocket 2.9 17:07:28 10° S 17:11:44 84° E 17:16:01 10° N
Cosmos 1470 Rocket 3.6 17:09:14 10° N 17:13:30 55° E 17:17:43 10° SSE
CSL-04 DEB 4.4 17:11:41 10° NNE 17:15:52 84° ESE 17:20:07 10° SSW
Cosmos 864 Rocket 4.4 17:13:05 10° N 17:19:25 78° E 17:25:39 10° SSE
Cosmos 2263 4.5 17:14:18 10° NNW 17:19:39 43° ENE 17:24:57 10° SE
Cosmos 1515 Rocket 3.7 17:15:32 10° S 17:19:45 51° E 17:24:03 10° NNE
CZ-2C R/B 3.8 17:16:54 10° ESE 17:20:58 26° ENE 17:24:56 10° N
SL-8 Rocket 4.2 17:16:22 10° N 17:22:37 79° W 17:28:53 10° S
Cosmos 482 Debris 2.9 17:21:13 10° WNW 17:22:59 56° SSW 17:23:45 28° SE
TIMED 4.5 17:18:53 10° SSW 17:23:15 88° ESE 17:27:38 10° NNE
Cosmos 1238 Rocket 4.0 17:22:11 10° NNE 17:25:38 25° ENE 17:29:37 10° SE
TELKOM 3 4.5 17:23:47 10° NW 17:26:05 24° N 17:26:18 24° NNE
COSMO-SKYMED 1 3.0 17:23:06 13° NNE 17:26:42 40° E 17:30:47 10° SSE
Cosmos 1689 Rocket 4.1 17:29:01 15° SE 17:29:01 15° SE 17:29:54 10° SSE
USA 281 3.7 17:22:19 10° ESE 17:28:08 35° NE 17:33:59 10° N
X-37B 0.6 17:25:04 10° WSW 17:28:13 73° SSE 17:29:28 33° E
Nadezhda 3 Rocket 4.4 17:23:19 10° SSE 17:29:10 40° E 17:35:03 10° NNE
SAR-Lupe-4 4.2 17:29:13 28° ENE 17:30:16 34° E 17:33:33 10° SSE
USA 81 4.3 17:26:53 10° N 17:32:10 73° W 17:37:26 10° S
Cosmos 2228 Rocket 3.7 17:28:19 10° SSE 17:32:24 34° E 17:34:29 23° NE
Helios 1A Rocket 4.1 17:33:25 24° NE 17:33:25 24° NE 17:35:49 10° N
Meteor 1-4 Rocket 2.6 17:30:08 10° SSW 17:33:42 76° W 17:37:16 10° N
H-2A R/B 3.0 17:35:17 25° ENE 17:35:51 26° ENE 17:40:00 10° N
Cosmos 1812 3.3 17:32:46 10° SSE 17:36:14 33° E 17:36:35 32° E
USA 267 3.9 17:34:11 22° ENE 17:37:46 38° NNE 17:43:42 10° NW
Cosmos 1939 Rocket 2.7 17:34:27 10° SSE 17:38:17 64° ENE 17:42:11 10° N
Cosmos 1821 Rocket 4.1 17:32:15 10° N 17:38:19 50° ENE 17:44:26 10° SSE
Cosmos 1328 Rocket 4.2 17:35:28 10° SSW 17:39:42 55° WNW 17:44:00 10° N
CZ-4 R/B 2.2 17:41:26 29° NE 17:41:26 29° NE 17:44:14 10° N
Meteor 1-11 Rocket 4.4 17:36:04 10° N 17:41:16 33° ENE 17:46:32 10° SE
BREEZE-M DEB (TANK) 3.4 17:39:05 10° SSW 17:42:20 24° SSE 17:42:53 23° SE
PSLV R/B 4.3 17:42:20 35° ENE 17:43:04 38° E 17:46:52 10° SSE
Cosmos 44 Rocket 3.8 17:38:11 10° NNW 17:43:07 42° NE 17:45:09 29° E
Cosmos 1933 Rocket 3.5 17:39:06 10° N 17:43:36 79° E 17:48:02 10° SSE
IRS-1C Rocket 4.0 17:39:25 10° SSE 17:44:37 64° ENE 17:49:52 10° N
Cosmos 1602 4.3 17:42:14 10° NNW 17:46:06 58° W 17:49:55 10° S
SAR-Lupe-1 4.1 17:46:35 44° ENE 17:47:16 52° E 17:50:47 10° S
Lacrosse 4 Rocket 3.3 17:45:43 10° SSE 17:46:59 16° SE 17:46:59 16° SE
Cosmos 1680 Rocket 4.0 17:44:19 10° SSE 17:49:09 38° ESE 17:50:19 33° ENE
CZ-4B R/B 4.5 17:44:49 10° SSW 17:49:48 41° W 17:54:47 10° NNW
SKYMED 3 4.4 17:47:24 16° NNE 17:50:48 73° ESE 17:55:07 10° S
SL-24 R/B 3.6 17:49:33 37° NE 17:50:50 62° E 17:54:26 10° S
Cosmos 1603 3.6 17:47:41 10° SSW 17:53:17 77° ESE 17:56:56 23° NNE
CZ-2D R/B 3.1 17:51:20 10° SSE 17:55:08 70° ENE 17:58:59 10° N
Cosmos 1943 3.1 17:51:02 10° SSW 17:56:39 72° ESE 17:59:58 26° NNE
H-2A R/B 4.2 17:54:50 10° NNW 17:58:17 25° WNW 18:01:47 10° WSW
Cosmos 1538 Rocket 4.5 17:53:30 10° SSW 17:58:49 63° WNW 18:03:43 12° NNE
Cosmos 2369 Rocket 2.4 17:53:48 10° NNW 17:59:28 73° WSW 18:05:05 10° SSE
Cosmos 1943 Rocket 3.4 17:55:23 10° NW 18:00:36 43° WSW 18:05:51 10° S
Meteor 1-5 Rocket 4.2 17:55:55 10° N 18:01:52 76° E 18:07:34 10° SSE
Okean O Rocket 3.7 17:58:15 10° SSW 18:02:02 29° W 18:05:52 10° NW
Cosmos 1782 4.1 17:58:24 10° SSW 18:02:09 40° WNW 18:05:57 10° N
Cosmos 1461 4.0 17:59:21 10° S 18:02:44 32° SE 18:02:44 32° SE
Okean-O 2.5 17:59:08 10° SSE 18:03:29 61° ENE 18:07:51 10° N
ARGOS 4.4 18:08:32 25° NNE 18:08:32 25° NNE 18:11:08 10° N
CENTAUR R/B 2.8 18:01:23 10° S 18:06:46 42° ESE 18:07:44 39° E
ISS -2.1 18:03:51 10° NW 18:05:55 26° NNW 18:05:55 26° NNW
Cosmos 2112 Rocket 4.2 18:04:37 10° S 18:09:40 49° ESE 18:09:53 48° E
Cosmos 2056 Rocket 4.4 18:06:01 10° N 18:09:29 32° NNE 18:09:29 32° NNE
ERS-2 3.4 18:10:45 18° N 18:13:06 40° WNW 18:16:33 10° SW
SKYMED 2 4.0 18:11:44 18° N 18:14:50 63° WNW 18:19:07 10° SSW
NOSS 3-2 (C) 3.5 18:09:36 10° S 18:14:52 45° ESE 18:15:09 45° ESE
Cosmos 1869 Rocket 3.6 18:13:50 10° N 18:22:43 10° SSE 18:22:47 10° SSE
BREEZE-M DEB (TANK) 3.0 18:11:29 10° WSW 18:19:46 74° SSE 18:19:59 72° ESE
Meteor 1-27 Rocket 3.8 18:15:29 10° S 18:20:11 50° ESE 18:20:11 50° ESE
Meteor 1-10 Rocket 4.1 18:19:37 10° S 18:25:16 87° WNW 18:28:49 24° N
Lacrosse 5 rocket 3.4 18:24:06 10° NW 18:25:53 15° NNW 18:25:53 15° NNW
Cosmos 371 Rocket 4.3 18:25:12 10° NNW 18:28:01 33° N 18:28:01 33° N
CZ-4B R/B 4.1 18:29:34 13° NW 18:31:04 16° WNW 18:33:08 10° WSW
NOSS 3-2 (A) 3.4 18:34:28 10° SW 18:40:07 77° NW 18:41:27 56° NNE
YAOGAN 1 3.9 18:46:29 33° NW 18:46:29 33° NW 18:49:00 10° NNW
Cosmos 1535 Rocket 4.3 18:39:41 10° N 18:45:50 86° E 18:51:58 10° S
USA 215 3.1 18:46:42 63° NE 18:47:53 87° NW 18:54:27 10° SW
MOS 1 Rocket 4.1 18:52:44 40° NNW 18:54:31 60° WNW 18:59:46 10° SSW
USA 238 DEB 3.8 18:52:57 10° SW 18:59:31 69° NW 19:00:35 59° N
USA 238 3.8 18:53:02 10° SW 18:59:35 70° NW 19:00:38 60° N
CZ-2C R/B 4.2 18:56:03 10° SSW 19:00:43 38° W 19:05:13 10° NNW
X-37B 4.3 19:01:41 10° W 19:01:44 10° W 19:01:44 10° W
Cosmos 1934 Rocket 4.4 19:01:29 10° NNW 19:07:45 62° W 19:13:54 10° S
USA 281 3.8 19:06:03 10° S 19:12:24 52° WSW 19:18:49 10° NNW
H-2A R/B 3.1 19:15:55 41° WNW 19:15:55 41° WNW 19:19:59 10° NNW
CZ-4 R/B 4.1 19:17:28 16° WNW 19:17:28 16° WNW 19:18:48 10° NW
USA 267 3.5 19:21:32 63° NW 19:21:32 63° NW 19:26:54 10° NW
Lacrosse 4 Rocket 4.4 19:23:12 10° SW 19:23:21 11° SW 19:23:21 11° SW
CENTAUR R/B 4.0 19:51:35 10° WSW 19:54:58 32° W 19:54:58 32° W
